DW9356 Weather Reports


Display with metric or nautical units.
time (UTC)temp
F
wind
direction
speed
MPH
gust
MPH
rain 1hr
in
rain 24hr
in
rain mn
in
humidity
%
barometer
mb
20260509031647 73 142 1.0 4.0 0.00 0.00 0.00 95 1009.8
20260509031601 73 136 1.0 4.0 0.00 0.00 0.00 95 1009.7
20260509030606 73 175 2.0 7.0 0.00 0.00 0.00 95 1009.6
20260509030104 73 148 2.0 7.0 0.00 0.00 0.00 95 1009.7
20260509025825 73 140 1.0 4.0 0.00 0.00 0.00 95 1009.6
20260509025102 73 132 1.0 3.0 0.00 0.00 0.00 95 1009.4
20260509024535 73 72 0.0 2.0 0.00 0.00 0.00 95 1009.4
20260509024027 73 71 1.0 5.0 0.00 0.00 0.00 95 1009.3
20260509023954 73 141 1.0 5.0 0.00 0.00 0.00 95 1009.3
20260509022932 73 151 1.0 4.0 0.00 0.00 0.00 94 1009.4
20260509022359 73 172 1.0 4.0 0.00 0.00 0.00 94 1009.4
20260509021857 74 158 1.0 5.0 0.00 0.00 0.00 94 1009.4
20260509021330 74 77 1.0 5.0 0.00 0.00 0.00 94 1009.1
20260509020801 74 78 1.0 4.0 0.00 0.00 0.00 94 1009.1
20260509020257 74 67 1.0 5.0 0.00 0.00 0.00 94 1009.1
20260509015738 74 87 2.0 5.0 0.00 0.00 0.00 94 1009.2
20260509015229 74 80 2.0 5.0 0.00 0.00 0.00 94 1009.0
20260509014701 74 61 1.0 5.0 0.00 0.00 0.00 94 1009.0
20260509014158 74 63 1.0 3.0 0.00 0.00 0.00 94 1009.1
20260509013633 74 82 1.0 2.0 0.00 0.00 0.00 94 1009.1
20260509013105 74 82 1.0 6.0 0.00 0.00 0.00 93 1009.0
20260509012603 74 49 1.0 6.0 0.00 0.00 0.00 93 1009.1
20260509012047 74 144 1.0 3.0 0.00 0.00 0.00 93 1009.2
20260509011519 74 143 0.0 3.0 0.00 0.00 0.00 93 1009.1
20260509011246 74 143 1.0 3.0 0.00 0.00 0.00 93 1009.0
20260509010738 74 165 1.0 3.0 0.00 0.00 0.00 93 1008.9
20260509010010 74 158 0.0 3.0 0.00 0.00 0.00 93 1008.9
20260509005444 74 73 0.0 3.0 0.00 0.00 0.00 93 1008.8
20260509004942 74 131 1.0 5.0 0.00 0.00 0.00 92 1008.7
20260509004414 74 84 1.0 5.0 0.00 0.00 0.00 92 1008.7
20260509003910 74 91 1.0 5.0 0.00 0.00 0.00 92 1008.7
20260509003349 75 101 1.0 5.0 0.00 0.00 0.00 92 1008.7
20260509002809 75 139 1.0 6.0 0.00 0.00 0.00 92 1008.7
20260509002307 75 248 2.0 6.0 0.00 0.00 0.00 91 1008.7
20260509002247 75 81 2.0 6.0 0.00 0.00 0.00 92 1008.7
20260509001239 75 79 1.0 5.0 0.00 0.00 0.00 91 1008.9
20260509000713 75 146 2.0 7.0 0.00 0.00 0.00 91 1009.1
20260509000207 75 162 1.0 7.0 0.00 0.00 0.00 91 1009.0
20260508235703 75 166 1.0 6.0 0.00 0.00 0.00 91 1008.9
20260508235139 75 174 1.0 6.0 0.00 0.00 0.00 91 1009.0
20260508234611 75 147 2.0 6.0 0.00 0.00 0.00 90 1008.9
20260508234108 76 149 1.0 3.0 0.00 0.00 0.00 90 1009.1
20260508233541 76 103 1.0 7.0 0.00 0.00 0.00 90 1009.2
20260508233017 76 100 1.0 7.0 0.00 0.00 0.00 90 1009.1
20260508232451 76 148 1.0 6.0 0.00 0.00 0.00 89 1009.1
20260508231945 76 146 2.0 6.0 0.00 0.00 0.00 89 1009.0
20260508231927 76 9 2.0 6.0 0.00 0.00 0.00 89 1009.1
20260508231142 76 167 3.0 8.0 0.00 0.00 0.00 88 1009.2
20260508230412 76 148 2.0 8.0 0.00 0.00 0.00 88 1009.0
20260508225846 77 165 2.0 8.0 0.00 0.00 0.00 87 1009.0
20260508225343 77 124 2.0 6.0 0.00 0.00 0.00 87 1008.9
20260508224840 77 102 2.0 6.0 0.00 0.00 0.00 87 1009.0
20260508224315 77 137 2.0 7.0 0.00 0.00 0.00 87 1009.0
20260508224008 77 81 2.0 7.0 0.00 0.00 0.00 86 1008.9
20260508223246 77 81 2.0 7.0 0.00 0.00 0.00 86 1008.9
20260508222742 78 149 3.0 7.0 0.00 0.00 0.00 86 1008.9
20260508222218 78 105 3.0 7.0 0.00 0.00 0.00 86 1009.0
20260508221713 78 157 2.0 6.0 0.00 0.00 0.00 86 1008.9
20260508221211 78 165 2.0 7.0 0.00 0.00 0.00 86 1009.0
20260508220643 78 58 2.0 7.0 0.00 0.00 0.00 86 1009.0
20260508220141 78 109 2.0 5.0 0.00 0.00 0.00 85 1009.2
20260508215628 78 195 2.0 5.0 0.00 0.00 0.00 85 1009.2
20260508215131 78 93 2.0 5.0 0.00 0.00 0.00 85 1009.1
20260508214615 78 138 1.0 4.0 0.00 0.00 0.00 84 1009.1
20260508214117 78 146 1.0 5.0 0.00 0.00 0.00 84 1009.1
20260508213836 78 155 2.0 5.0 0.00 0.00 0.00 83 1009.2
20260508213116 79 140 2.0 6.0 0.00 0.00 0.00 83 1009.5
20260508212811 79 127 2.0 6.0 0.00 0.00 0.00 82 1009.5
20260508212021 80 98 1.0 5.0 0.00 0.00 0.00 82 1009.5
20260508211517 80 96 2.0 6.0 0.00 0.00 0.00 82 1009.4
20260508210953 80 157 2.0 6.0 0.00 0.00 0.00 82 1009.3
20260508210450 80 74 2.0 5.0 0.00 0.00 0.00 82 1009.3
20260508205947 80 76 1.0 4.0 0.00 0.00 0.00 82 1009.4
20260508205419 80 159 1.0 3.0 0.00 0.00 0.00 81 1009.5
20260508204917 80 166 1.0 6.0 0.00 0.00 0.00 81 1009.6
20260508204413 80 158 1.0 6.0 0.00 0.00 0.00 82 1009.6
20260508203910 79 148 2.0 5.0 0.00 0.00 0.00 83 1009.6
20260508203408 79 146 2.0 5.0 0.00 0.00 0.00 82 1009.7
20260508202903 79 155 2.0 5.0 0.00 0.00 0.00 82 1009.7
20260508202359 79 76 1.0 5.0 0.00 0.00 0.00 81 1009.7
20260508201857 79 134 2.0 3.0 0.00 0.00 0.00 83 1009.5
20260508201351 79 122 2.0 6.0 0.00 0.00 0.00 82 1009.7
20260508200848 79 60 2.0 6.0 0.00 0.00 0.00 81 1010.0
20260508200603 79 68 1.0 5.0 0.00 0.00 0.00 82 1009.9
20260508195843 79 85 1.0 3.0 0.00 0.00 0.00 82 1010.0
20260508195538 78 84 1.0 3.0 0.00 0.00 0.00 82 1010.0
20260508194813 78 87 1.0 6.0 0.00 0.00 0.00 82 1010.1
20260508194246 78 98 2.0 6.0 0.00 0.00 0.00 82 1010.2
20260508193743 78 89 2.0 6.0 0.00 0.00 0.00 83 1010.2
20260508193356 77 129 1.0 3.0 0.00 0.00 0.00 83 1010.5
20260508193243 78 154 1.0 5.0 0.00 0.00 0.00 83 1010.2
20260508192124 77 93 1.0 3.0 0.00 0.00 0.00 83 1010.7
20260508191600 77 89 1.0 4.0 0.00 0.00 0.00 83 1011.0
20260508191046 77 86 2.0 4.0 0.00 0.00 0.00 83 1010.9
20260508190813 77 77 2.0 3.0 0.00 0.00 0.00 83 1010.9
20260508190021 77 128 1.0 4.0 0.00 0.00 0.00 83 1010.9
20260508185519 77 219 1.0 4.0 0.00 0.00 0.00 83 1010.8
20260508184953 77 131 2.0 4.0 0.00 0.00 0.00 84 1010.7
20260508184427 76 8 2.0 7.0 0.00 0.00 0.00 82 1010.7
20260508184406 76 63 2.0 7.0 0.00 0.00 0.00 82 1010.8
20260508183417 77 86 2.0 9.0 0.00 0.00 0.00 84 1010.9
20260508182915 76 155 2.0 9.0 0.00 0.00 0.00 84 1010.8
20260508182348 76 135 2.0 6.0 0.00 0.00 0.00 84 1010.9
20260508181835 76 88 3.0 7.0 0.00 0.00 0.00 84 1010.9
20260508181334 75 62 3.0 7.0 0.00 0.00 0.00 84 1010.8
20260508181051 75 92 3.0 8.0 0.00 0.00 0.00 85 1010.9
20260508180324 75 77 3.0 8.0 0.00 0.00 0.00 85 1011.0
20260508175758 74 82 2.0 6.0 0.00 0.00 0.00 87 1011.0
20260508175514 74 84 2.0 4.0 0.00 0.00 0.00 88 1011.1
20260508174742 73 89 1.0 4.0 0.00 0.00 0.00 88 1011.4
20260508174244 72 84 1.0 4.0 0.00 0.00 0.00 87 1011.7
20260508173716 72 104 1.0 5.0 0.00 0.00 0.00 88 1011.7
20260508173215 72 72 1.0 5.0 0.00 0.00 0.00 87 1011.8
20260508172702 72 130 1.0 3.0 0.00 0.00 0.00 87 1011.9
20260508172204 72 81 1.0 2.0 0.00 0.00 0.00 87 1012.0
20260508171900 72 81 1.0 4.0 0.00 0.00 0.00 87 1012.1
20260508171134 72 81 2.0 4.0 0.00 0.00 0.00 86 1012.0
20260508170629 72 89 2.0 5.0 0.00 0.00 0.00 86 1012.0
20260508170120 72 54 2.0 5.0 0.00 0.00 0.00 86 1011.9
20260508165555 72 106 2.0 6.0 0.00 0.00 0.00 87 1011.8
20260508164524 72 84 2.0 6.0 0.00 0.00 0.00 88 1011.8
20260508163958 71 97 2.0 7.0 0.00 0.00 0.00 89 1011.8
20260508163457 71 146 2.0 7.0 0.00 0.00 0.00 89 1012.0
20260508163421 70 117 2.0 5.0 0.00 0.00 0.00 89 1012.0
20260508162426 70 93 2.0 5.0 0.00 0.00 0.00 88 1012.0
20260508161923 70 94 2.0 5.0 0.00 0.00 0.00 88 1012.3
20260508161641 70 150 3.0 8.0 0.00 0.00 0.00 88 1012.4
20260508160912 70 0 3.0 7.0 0.00 0.00 0.00 89 1012.6
20260508160620 70 0 3.0 4.0 0.00 0.00 0.00 88 1012.5
20260508155918 70 0 3.0 8.0 0.00 0.00 0.00 88 1012.5
20260508155805 70 0 3.0 8.0 0.00 0.00 0.00 88 1012.5
20260508154655 70 0 3.0 10.0 0.00 0.00 0.00 88 1012.6
20260508154155 69 79 3.0 10.0 0.00 0.00 0.00 88 1012.7
20260508154148 69 36 3.0 8.0 0.00 0.00 0.00 89 1012.9
20260508153141 69 36 3.0 8.0 0.00 0.00 0.00 89 1012.8
20260508152549 69 31 3.0 8.0 0.00 0.00 0.00 88 1012.9
20260508152305 69 22 3.0 8.0 0.00 0.00 0.00 88 1013.0
20260508151539 69 0 3.0 10.0 0.00 0.00 0.00 88 1013.1
20260508151011 69 0 3.0 7.0 0.00 0.00 0.00 88 1013.0
20260508150508 69 0 3.0 8.0 0.00 0.00 0.00 88 1012.9
20260508145940 69 0 3.0 8.0 0.00 0.00 0.00 88 1013.0
20260508145411 69 0 3.0 8.0 0.00 0.00 0.00 88 1013.1
20260508145125 69 0 2.0 6.0 0.00 0.00 0.00 88 1013.1
20260508144342 69 0 3.0 5.0 0.00 0.00 0.00 88 1013.1
20260508144102 69 0 3.0 7.0 0.00 0.00 0.00 87 1013.2
20260508143540 69 16 2.0 7.0 0.00 0.00 0.00 88 1013.1
20260508142815 69 33 2.0 3.0 0.00 0.00 0.00 87 1013.2
20260508142255 69 0.0 0.0 0.00 0.00 0.00 87
20260508130811 0 46 1.0 1.0 0.00 0.00 0.00
20260508125340 67 0 1.0 6.0 0.00 0.00 0.00 89 1012.8
20260508124836 67 0 1.0 6.0 0.00 0.00 0.00 90 1012.6
20260508124803 67 0 1.0 4.0 0.00 0.00 0.00 90 1012.9
20260508124014 67 0 1.0 6.0 0.00 0.00 0.00 90 1012.6
20260508123006 67 0 2.0 8.0 0.00 0.00 0.00 90 1012.0
20260508122440 67 0 1.0 8.0 0.00 0.00 0.00 89 1012.1
20260508121936 67 0 1.0 6.0 0.00 0.00 0.00 89 1012.2
20260508121409 67 0 1.0 6.0 0.00 0.00 0.00 89 1012.8
20260508120906 67 0 2.0 6.0 0.00 0.00 0.00 89 1013.0
20260508120339 67 0 1.0 6.0 0.00 0.00 0.00 88 1013.1
20260508115835 67 0 0.0 3.0 0.00 0.00 0.00 88 1013.3
20260508115333 67 0 1.0 4.0 0.00 0.00 0.00 88 1013.5
20260508114830 67 0 1.0 4.0 0.00 0.00 0.00 88 1013.4
20260508114305 68 0 1.0 3.0 0.00 0.00 0.00 87 1013.3
20260508113738 68 0 1.0 5.0 0.00 0.00 0.00 87 1013.3
20260508113233 68 0 2.0 5.0 0.00 0.00 0.00 87 1013.2
20260508112731 68 0 2.0 5.0 0.00 0.00 0.00 87 1013.5
20260508112229 68 0 1.0 5.0 0.00 0.00 0.00 87 1013.3
20260508111702 68 0 1.0 3.0 0.00 0.00 0.00 88 1013.1
20260508111137 68 0 1.0 5.0 0.00 0.00 0.00 87 1012.8
20260508110836 68 0 1.0 5.0 0.00 0.00 0.00 87 1012.5
20260508110107 69 0 1.0 4.0 0.00 0.00 0.00 87 1012.3
20260508105542 69 0 1.0 4.0 0.00 0.00 0.00 87 1012.5
20260508105041 69 0 1.0 3.0 0.00 0.00 0.00 87 1012.2
20260508104728 68 0 1.0 5.0 0.00 0.00 0.00 87 1012.2
20260508104003 68 0 1.0 5.0 0.00 0.00 0.00 87 1012.0
20260508103500 69 0 2.0 5.0 0.00 0.00 0.00 87 1012.2
20260508102935 69 0 2.0 5.0 0.00 0.00 0.00 87 1012.6
20260508102409 69 0 1.0 4.0 0.00 0.00 0.00 87 1012.9
20260508102103 69 0 1.0 4.0 0.00 0.00 0.00 86 1013.0
20260508101338 68 0 1.0 3.0 0.00 0.00 0.00 86 1013.2
20260508100811 68 34 0.0 3.0 0.00 0.00 0.00 86 1013.0
20260508100310 68 122 1.0 4.0 0.00 0.00 0.00 86 1012.6
20260508095741 68 73 1.0 4.0 0.00 0.00 0.00 86 1012.2
20260508095239 69 164 1.0 3.0 0.00 0.00 0.00 86 1012.3
20260508094712 69 126 1.0 3.0 0.00 0.00 0.00 86 1012.4
20260508094408 69 84 1.0 3.0 0.00 0.00 0.00 85 1012.9
20260508093643 69 80 1.0 4.0 0.00 0.00 0.00 85 1013.0
20260508093401 68 82 2.0 5.0 0.00 0.00 0.00 85 1012.9
20260508092614 68 24 1.0 5.0 0.00 0.00 0.00 85 1012.8
20260508092113 68 84 2.0 6.0 0.00 0.00 0.00 85 1012.7
20260508091545 68 87 2.0 6.0 0.00 0.00 0.00 84 1012.5
20260508091042 68 36 3.0 7.0 0.00 0.00 0.00 84 1012.2
20260508090540 68 85 3.0 8.0 0.00 0.00 0.00 84 1012.0
20260508090036 68 79 2.0 8.0 0.00 0.00 0.00 84 1012.1
20260508085511 68 77 2.0 7.0 0.00 0.00 0.00 84 1012.3
20260508085008 68 90 3.0 7.0 0.00 0.00 0.00 84 1012.2
20260508084505 68 70 3.0 7.0 0.00 0.00 0.00 84 1012.4
20260508083956 68 95 2.0 6.0 0.00 0.00 0.00 84 1012.5
20260508083452 68 63 2.0 6.0 0.00 0.00 0.00 84 1012.8
20260508082926 68 92 2.0 5.0 0.00 0.00 0.00 84 1013.0
20260508082402 68 76 2.0 5.0 0.00 0.00 0.00 83 1012.9
20260508081859 68 67 2.0 7.0 0.00 0.00 0.00 83 1012.8
20260508081356 68 106 2.0 7.0 0.00 0.00 0.00 83 1012.8
20260508081116 68 67 3.0 7.0 0.00 0.00 0.00 83 1012.5
20260508080544 68 61 2.0 6.0 0.00 0.00 0.00 83 1012.3
20260508075820 68 84 2.0 7.0 0.00 0.00 0.00 83 1012.5
20260508075254 68 9 2.0 7.0 0.00 0.00 0.00 83 1012.5
20260508075016 68 67 2.0 5.0 0.00 0.00 0.00 83 1012.8
20260508074721 68 17 2.0 5.0 0.00 0.00 0.00 83 1013.1
20260508073721 68 17 2.0 6.0 0.00 0.00 0.00 83 1013.2
20260508073219 68 42 2.0 6.0 0.00 0.00 0.00 83 1013.2
20260508072652 68 96 1.0 4.0 0.00 0.00 0.00 83 1013.2
20260508072125 68 40 1.0 4.0 0.00 0.00 0.00 83 1013.4
20260508071623 68 26 2.0 4.0 0.00 0.00 0.00 83 1013.3
20260508071057 69 35 1.0 4.0 0.00 0.00 0.00 83 1013.2
20260508070555 69 57 1.0 5.0 0.00 0.00 0.00 83 1013.2
20260508070251 69 22 1.0 5.0 0.00 0.00 0.00 83 1013.1
20260508065525 69 31 2.0 4.0 0.00 0.00 0.00 83 1013.3
20260508065022 69 18 2.0 4.0 0.00 0.00 0.00 83 1013.5
20260508064519 69 29 1.0 4.0 0.00 0.00 0.00 83 1013.3
20260508064214 69 66 1.0 4.0 0.00 0.00 0.00 84 1013.4
20260508063426 69 36 2.0 5.0 0.00 0.00 0.00 84 1013.5
20260508062927 69 39 2.0 5.0 0.00 0.00 0.00 84 1013.4
20260508062359 69 87 2.0 5.0 0.00 0.00 0.00 84 1013.0
20260508061856 69 84 1.0 5.0 0.00 0.00 0.00 84 1013.0
20260508061621 69 82 1.0 5.0 0.00 0.00 0.00 84 1013.2
20260508060841 69 89 2.0 6.0 0.00 0.00 0.00 84 1013.0
20260508060343 68 92 2.0 6.0 0.00 0.00 0.00 84 1012.9
20260508055841 68 74 1.0 3.0 0.00 0.00 0.00 84 1012.9
20260508055338 69 38 1.0 3.0 0.00 0.00 0.00 83 1013.1
20260508054811 69 26 1.0 4.0 0.00 0.00 0.00 83 1013.3
20260508054307 69 22 1.0 4.0 0.00 0.00 0.00 83 1013.3
20260508053806 69 69 1.0 3.0 0.00 0.00 0.00 83 1013.1
20260508053306 69 77 2.0 4.0 0.00 0.00 0.00 83 1012.9
20260508052800 69 76 2.0 4.0 0.00 0.00 0.00 82 1012.7
20260508052236 69 77 1.0 4.0 0.00 0.00 0.00 81 1012.7
20260508051710 69 44 1.0 3.0 0.00 0.00 0.00 81 1013.1
20260508051413 69 67 1.0 6.0 0.00 0.00 0.00 80 1013.1
20260508050645 69 78 2.0 6.0 0.00 0.00 0.00 80 1013.1
20260508050129 69 62 2.0 5.0 0.00 0.00 0.00 80 1013.0
20260508045625 69 92 1.0 5.0 0.00 0.00 0.00 80 1013.0
20260508045122 69 65 1.0 3.0 0.00 0.00 0.00 79 1013.2
20260508044622 69 31 2.0 5.0 0.00 0.00 0.00 79 1013.4
20260508044100 70 47 2.0 6.0 0.00 0.00 0.00 79 1013.5
20260508043817 70 94 2.0 6.0 0.00 0.00 0.00 78 1013.4
20260508043101 70 86 2.0 6.0 0.00 0.00 0.00 78 1013.5
20260508042600 70 39 2.0 5.0 0.00 0.00 0.00 78 1013.4
20260508042101 70 58 2.0 5.0 0.00 0.00 0.00 78 1013.4
20260508041603 70 0 2.0 5.0 0.00 0.00 0.00 77 1013.3
20260508041045 70 28 2.0 6.0 0.00 0.00 0.00 77 1013.2
20260508040543 70 0 2.0 6.0 0.00 0.00 0.00 77 1013.2
20260508040241 70 0 3.0 8.0 0.00 0.00 0.00 76 1013.3
20260508035518 71 68 3.0 8.0 0.00 0.00 0.00 76 1013.3
20260508035017 71 88 3.0 10.0 0.00 0.00 0.00 76 1013.4
20260508034452 71 59 4.0 13.0 0.00 0.00 0.00 76 1013.2
20260508033946 71 97 4.0 10.0 0.00 0.00 0.00 76 1012.9
20260508033446 71 100 3.0 8.0 0.00 0.00 0.00 75 1012.9
20260508032927 71 85 3.0 8.0 0.00 0.00 0.00 75 1013.0
20260508032402 71 98 2.0 8.0 0.00 0.00 0.00 74 1013.2